contact:dominique.lefevre@mio.osupytheas.fr, maurice.libes@osupytheas.fr, didier.mallarino@osupytheas.fr
Project:EMSO http://www.emso-fr.org/EMSO-France
Depth: 2436.0 m
Title:EMSO Ligure Ouest : Data MII capteur MICROCAT
DateTime_Computer,Latitude,Longitude,Temperature,Conductivity,Pressure,DateTime_Instrument
DateTime_Computer,Latitude,Longitude,degC,S m-1,dbar,DateTime_Instrument
2021-09-11T00:01:32Z,42.805,6.029,13.3009,4.60061,2470.46,2021-9-11T02:02:53Z
2021-09-11T00:04:36Z,42.805,6.029,13.3009,4.60033,2470.497,2021-9-11T02:05:56Z
2021-09-11T00:07:39Z,42.805,6.029,13.2998,4.60045,2470.474,2021-9-11T02:08:59Z
2021-09-11T00:10:42Z,42.805,6.029,13.3005,4.60047,2470.427,2021-9-11T02:12:02Z
2021-09-11T00:13:45Z,42.805,6.029,13.3006,4.60049,2470.474,2021-9-11T02:15:06Z
2021-09-11T00:16:48Z,42.805,6.029,13.3011,4.60052,2470.474,2021-9-11T02:18:09Z
2021-09-11T00:19:51Z,42.805,6.029,13.3024,4.60040,2470.474,2021-9-11T02:21:12Z
2021-09-11T00:22:54Z,42.805,6.029,13.3019,4.60056,2470.437,2021-9-11T02:24:15Z
2021-09-11T00:25:57Z,42.805,6.029,13.3013,4.60079,2470.427,2021-9-11T02:27:18Z
2021-09-11T00:29:01Z,42.805,6.029,13.3010,4.60062,2470.497,2021-9-11T02:30:21Z
2021-09-11T00:32:04Z,42.805,6.029,13.3018,4.60081,2470.45,2021-9-11T02:33:24Z
2021-09-11T00:35:07Z,42.805,6.029,13.3023,4.60055,2470.497,2021-9-11T02:36:27Z
2021-09-11T00:38:10Z,42.805,6.029,13.3021,4.60062,2470.45,2021-9-11T02:39:31Z
2021-09-11T00:41:13Z,42.805,6.029,13.3021,4.60067,2470.413,2021-9-11T02:42:34Z
2021-09-11T00:44:16Z,42.805,6.029,13.3022,4.60079,2470.45,2021-9-11T02:45:37Z
2021-09-11T00:47:19Z,42.805,6.029,13.3009,4.60045,2470.46,2021-9-11T02:48:40Z
2021-09-11T00:50:22Z,42.805,6.029,13.3015,4.60074,2470.45,2021-9-11T02:51:43Z
2021-09-11T00:53:26Z,42.805,6.029,13.3016,4.60058,2470.39,2021-9-11T02:54:46Z
2021-09-11T00:56:29Z,42.805,6.029,13.3015,4.60022,2470.427,2021-9-11T02:57:49Z
2021-09-11T00:59:32Z,42.805,6.029,13.3014,4.60027,2470.45,2021-9-11T03:00:52Z
2021-09-11T01:02:35Z,42.805,6.029,13.3016,4.60039,2470.39,2021-9-11T03:03:56Z
2021-09-11T01:05:38Z,42.805,6.029,13.3003,4.60052,2470.413,2021-9-11T03:06:59Z
2021-09-11T01:08:41Z,42.805,6.029,13.3016,4.60052,2470.413,2021-9-11T03:10:02Z
2021-09-11T01:11:44Z,42.805,6.029,13.3011,4.60044,2470.404,2021-9-11T03:13:05Z
2021-09-11T01:14:47Z,42.805,6.029,13.3015,4.60062,2470.427,2021-9-11T03:16:08Z
2021-09-11T01:17:50Z,42.805,6.029,13.2999,4.60041,2470.427,2021-9-11T03:19:11Z
2021-09-11T01:20:54Z,42.805,6.029,13.2999,4.60048,2470.427,2021-9-11T03:22:14Z
2021-09-11T01:23:57Z,42.805,6.029,13.3009,4.60035,2470.39,2021-9-11T03:25:17Z
2021-09-11T01:27:00Z,42.805,6.029,13.3004,4.60052,2470.427,2021-9-11T03:28:21Z
2021-09-11T01:30:03Z,42.805,6.029,13.3000,4.60044,2470.413,2021-9-11T03:31:24Z
2021-09-11T01:33:06Z,42.805,6.029,13.3004,4.60052,2470.366,2021-9-11T03:34:27Z
2021-09-11T01:36:09Z,42.805,6.029,13.3003,4.60045,2470.413,2021-9-11T03:37:30Z
2021-09-11T01:39:12Z,42.805,6.029,13.3009,4.60046,2470.427,2021-9-11T03:40:33Z
2021-09-11T01:42:15Z,42.805,6.029,13.3005,4.60060,2470.413,2021-9-11T03:43:36Z
2021-09-11T01:45:19Z,42.805,6.029,13.3005,4.60041,2470.437,2021-9-11T03:46:39Z
2021-09-11T01:48:22Z,42.805,6.029,13.3004,4.60067,2470.413,2021-9-11T03:49:42Z
2021-09-11T01:51:25Z,42.805,6.029,13.3000,4.60044,2470.39,2021-9-11T03:52:46Z
2021-09-11T01:54:28Z,42.805,6.029,13.3002,4.60036,2470.39,2021-9-11T03:55:49Z
2021-09-11T01:57:31Z,42.805,6.029,13.3001,4.60056,2470.39,2021-9-11T03:58:52Z
2021-09-11T02:00:34Z,42.805,6.029,13.3006,4.60048,2470.404,2021-9-11T04:01:55Z
2021-09-11T02:03:37Z,42.805,6.029,13.3004,4.60053,2470.39,2021-9-11T04:04:58Z
2021-09-11T02:06:40Z,42.805,6.029,13.2999,4.60046,2470.38,2021-9-11T04:08:01Z
2021-09-11T02:09:44Z,42.805,6.029,13.3016,4.60054,2470.38,2021-9-11T04:11:04Z
2021-09-11T02:12:47Z,42.805,6.029,13.3001,4.60050,2470.366,2021-9-11T04:14:07Z
2021-09-11T02:15:50Z,42.805,6.029,13.3014,4.60035,2470.404,2021-9-11T04:17:10Z
2021-09-11T02:18:53Z,42.805,6.029,13.3000,4.60039,2470.343,2021-9-11T04:20:14Z
2021-09-11T02:21:56Z,42.805,6.029,13.3011,4.60049,2470.404,2021-9-11T04:23:17Z
2021-09-11T02:24:59Z,42.805,6.029,13.3000,4.60047,2470.39,2021-9-11T04:26:20Z
2021-09-11T02:28:02Z,42.805,6.029,13.3004,4.60031,2470.404,2021-9-11T04:29:23Z
2021-09-11T02:31:05Z,42.805,6.029,13.3009,4.60059,2470.366,2021-9-11T04:32:26Z
2021-09-11T02:34:09Z,42.805,6.029,13.3001,4.60049,2470.38,2021-9-11T04:35:29Z
2021-09-11T02:37:12Z,42.805,6.029,13.3003,4.60045,2470.366,2021-9-11T04:38:32Z
2021-09-11T02:40:15Z,42.805,6.029,13.3002,4.60035,2470.404,2021-9-11T04:41:36Z
2021-09-11T02:43:18Z,42.805,6.029,13.3014,4.60060,2470.38,2021-9-11T04:44:39Z
2021-09-11T02:46:21Z,42.805,6.029,13.3006,4.60059,2470.39,2021-9-11T04:47:42Z
2021-09-11T02:49:24Z,42.805,6.029,13.3003,4.60046,2470.357,2021-9-11T04:50:45Z
2021-09-11T02:52:27Z,42.805,6.029,13.3004,4.60044,2470.343,2021-9-11T04:53:48Z
2021-09-11T02:55:30Z,42.805,6.029,13.2998,4.60035,2470.343,2021-9-11T04:56:51Z
2021-09-11T02:58:34Z,42.805,6.029,13.3004,4.60046,2470.343,2021-9-11T04:59:54Z
2021-09-11T03:01:37Z,42.805,6.029,13.3005,4.60045,2470.343,2021-9-11T05:02:57Z
2021-09-11T03:04:40Z,42.805,6.029,13.3001,4.60040,2470.357,2021-9-11T05:06:00Z
2021-09-11T03:07:43Z,42.805,6.029,13.3000,4.60034,2470.357,2021-9-11T05:09:04Z
2021-09-11T03:10:46Z,42.805,6.029,13.2999,4.60057,2470.343,2021-9-11T05:12:07Z
2021-09-11T03:13:49Z,42.805,6.029,13.3010,4.60064,2470.32,2021-9-11T05:15:10Z
2021-09-11T03:16:52Z,42.805,6.029,13.3026,4.60075,2470.297,2021-9-11T05:18:13Z
2021-09-11T03:19:55Z,42.805,6.029,13.3007,4.60054,2470.32,2021-9-11T05:21:16Z
2021-09-11T03:22:59Z,42.805,6.029,13.3005,4.60052,2470.297,2021-9-11T05:24:19Z
2021-09-11T03:26:02Z,42.805,6.029,13.2999,4.60048,2470.32,2021-9-11T05:27:22Z
2021-09-11T03:29:05Z,42.805,6.029,13.3004,4.60038,2470.343,2021-9-11T05:30:25Z
2021-09-11T03:32:08Z,42.805,6.029,13.3004,4.60038,2470.32,2021-9-11T05:33:29Z
2021-09-11T03:35:11Z,42.805,6.029,13.2999,4.60042,2470.32,2021-9-11T05:36:32Z
2021-09-11T03:38:14Z,42.805,6.029,13.3011,4.60051,2470.31,2021-9-11T05:39:35Z
2021-09-11T03:41:17Z,42.805,6.029,13.2996,4.60054,2470.31,2021-9-11T05:42:38Z
2021-09-11T03:44:20Z,42.805,6.029,13.3001,4.60044,2470.31,2021-9-11T05:45:41Z
2021-09-11T03:47:24Z,42.805,6.029,13.3005,4.60049,2470.334,2021-9-11T05:48:44Z
2021-09-11T03:50:27Z,42.805,6.029,13.3000,4.60036,2470.334,2021-9-11T05:51:47Z
2021-09-11T03:53:30Z,42.805,6.029,13.3016,4.60055,2470.334,2021-9-11T05:54:50Z
2021-09-11T03:56:33Z,42.805,6.029,13.3011,4.60039,2470.343,2021-9-11T05:57:54Z
2021-09-11T03:59:36Z,42.805,6.029,13.3007,4.60057,2470.31,2021-9-11T06:00:57Z
2021-09-11T04:02:39Z,42.805,6.029,13.2998,4.60046,2470.297,2021-9-11T06:04:00Z
2021-09-11T04:05:42Z,42.805,6.029,13.3006,4.60057,2470.32,2021-9-11T06:07:03Z
2021-09-11T04:08:45Z,42.805,6.029,13.3004,4.60026,2470.31,2021-9-11T06:10:06Z
2021-09-11T04:11:49Z,42.805,6.029,13.3004,4.60041,2470.297,2021-9-11T06:13:09Z
2021-09-11T04:14:52Z,42.805,6.029,13.2996,4.60052,2470.297,2021-9-11T06:16:12Z
2021-09-11T04:17:55Z,42.805,6.029,13.3006,4.60069,2470.297,2021-9-11T06:19:15Z
2021-09-11T04:20:58Z,42.805,6.029,13.3001,4.60046,2470.32,2021-9-11T06:22:19Z
2021-09-11T04:24:01Z,42.805,6.029,13.3004,4.60055,2470.297,2021-9-11T06:25:22Z
2021-09-11T04:27:04Z,42.805,6.029,13.3001,4.60058,2470.32,2021-9-11T06:28:25Z
2021-09-11T04:30:07Z,42.805,6.029,13.3000,4.60043,2470.273,2021-9-11T06:31:28Z
2021-09-11T04:33:10Z,42.805,6.029,13.3004,4.60047,2470.31,2021-9-11T06:34:31Z
2021-09-11T04:36:13Z,42.805,6.029,13.3016,4.60066,2470.32,2021-9-11T06:37:34Z
2021-09-11T04:39:17Z,42.805,6.029,13.3006,4.60060,2470.31,2021-9-11T06:40:37Z
2021-09-11T04:42:20Z,42.805,6.029,13.3006,4.60056,2470.357,2021-9-11T06:43:40Z
2021-09-11T04:45:23Z,42.805,6.029,13.3005,4.60042,2470.31,2021-9-11T06:46:44Z
2021-09-11T04:48:26Z,42.805,6.029,13.3004,4.60053,2470.31,2021-9-11T06:49:47Z
2021-09-11T04:51:29Z,42.805,6.029,13.3000,4.60049,2470.287,2021-9-11T06:52:50Z
2021-09-11T04:54:32Z,42.805,6.029,13.3012,4.60044,2470.31,2021-9-11T06:55:53Z
2021-09-11T04:57:35Z,42.805,6.029,13.3013,4.60049,2470.297,2021-9-11T06:58:56Z
2021-09-11T05:00:39Z,42.805,6.029,13.3006,4.60043,2470.297,2021-9-11T07:01:59Z
2021-09-11T05:03:42Z,42.805,6.029,13.3011,4.60055,2470.334,2021-9-11T07:05:02Z
2021-09-11T05:06:45Z,42.805,6.029,13.3002,4.60061,2470.31,2021-9-11T07:08:05Z
2021-09-11T05:09:48Z,42.805,6.029,13.3009,4.60045,2470.273,2021-9-11T07:11:09Z
2021-09-11T05:12:51Z,42.805,6.029,13.3008,4.60034,2470.297,2021-9-11T07:14:12Z
2021-09-11T05:15:54Z,42.805,6.029,13.3007,4.60040,2470.25,2021-9-11T07:17:15Z
2021-09-11T05:18:57Z,42.805,6.029,13.3006,4.60064,2470.287,2021-9-11T07:20:18Z
2021-09-11T05:22:00Z,42.805,6.029,13.3000,4.60050,2470.31,2021-9-11T07:23:21Z
2021-09-11T05:25:03Z,42.805,6.029,13.3000,4.60031,2470.297,2021-9-11T07:26:24Z
2021-09-11T05:28:07Z,42.805,6.029,13.3007,4.60042,2470.31,2021-9-11T07:29:27Z
2021-09-11T05:31:10Z,42.805,6.029,13.3002,4.60047,2470.32,2021-9-11T07:32:30Z
2021-09-11T05:34:13Z,42.805,6.029,13.3006,4.60051,2470.334,2021-9-11T07:35:34Z
2021-09-11T05:37:16Z,42.805,6.029,13.2996,4.60047,2470.32,2021-9-11T07:38:37Z
2021-09-11T05:40:19Z,42.805,6.029,13.3006,4.60059,2470.357,2021-9-11T07:41:40Z
2021-09-11T05:43:22Z,42.805,6.029,13.2999,4.60039,2470.32,2021-9-11T07:44:43Z
2021-09-11T05:46:25Z,42.805,6.029,13.3009,4.60047,2470.334,2021-9-11T07:47:46Z
2021-09-11T05:49:28Z,42.805,6.029,13.3011,4.60049,2470.32,2021-9-11T07:50:49Z
2021-09-11T05:52:32Z,42.805,6.029,13.3013,4.60052,2470.343,2021-9-11T07:53:52Z
2021-09-11T05:55:35Z,42.805,6.029,13.3004,4.60053,2470.334,2021-9-11T07:56:55Z
2021-09-11T05:58:38Z,42.805,6.029,13.3005,4.60056,2470.32,2021-9-11T07:59:59Z
2021-09-11T06:01:41Z,42.805,6.029,13.3004,4.60037,2470.334,2021-9-11T08:03:02Z
2021-09-11T06:04:44Z,42.805,6.029,13.3008,4.60045,2470.32,2021-9-11T08:06:05Z
2021-09-11T06:07:47Z,42.805,6.029,13.3000,4.60033,2470.343,2021-9-11T08:09:08Z
2021-09-11T06:10:50Z,42.805,6.029,13.3000,4.60036,2470.31,2021-9-11T08:12:11Z
2021-09-11T06:13:53Z,42.805,6.029,13.3011,4.60041,2470.357,2021-9-11T08:15:14Z
2021-09-11T06:16:57Z,42.805,6.029,13.3004,4.60034,2470.366,2021-9-11T08:18:17Z
2021-09-11T06:20:00Z,42.805,6.029,13.2999,4.60029,2470.366,2021-9-11T08:21:20Z
2021-09-11T06:23:03Z,42.805,6.029,13.2998,4.60044,2470.404,2021-9-11T08:24:23Z
2021-09-11T06:26:06Z,42.805,6.029,13.3026,4.60042,2470.38,2021-9-11T08:27:27Z
2021-09-11T06:29:09Z,42.805,6.029,13.3001,4.60045,2470.39,2021-9-11T08:30:30Z
2021-09-11T06:32:12Z,42.805,6.029,13.3000,4.60048,2470.357,2021-9-11T08:33:33Z
2021-09-11T06:35:15Z,42.805,6.029,13.2999,4.60030,2470.357,2021-9-11T08:36:36Z
2021-09-11T06:38:18Z,42.805,6.029,13.2999,4.60021,2470.38,2021-9-11T08:39:39Z
2021-09-11T06:41:22Z,42.805,6.029,13.3000,4.60026,2470.38,2021-9-11T08:42:42Z
2021-09-11T06:44:25Z,42.805,6.029,13.2999,4.60044,2470.404,2021-9-11T08:45:45Z
2021-09-11T06:47:28Z,42.805,6.029,13.2999,4.60032,2470.38,2021-9-11T08:48:48Z
2021-09-11T06:50:31Z,42.805,6.029,13.2999,4.60029,2470.343,2021-9-11T08:51:52Z
2021-09-11T06:53:34Z,42.805,6.029,13.3002,4.60042,2470.404,2021-9-11T08:54:55Z
2021-09-11T06:56:37Z,42.805,6.029,13.3000,4.60040,2470.39,2021-9-11T08:57:58Z
2021-09-11T06:59:40Z,42.805,6.029,13.3007,4.60048,2470.404,2021-9-11T09:01:01Z
2021-09-11T07:02:43Z,42.805,6.029,13.3011,4.60043,2470.39,2021-9-11T09:04:04Z
2021-09-11T07:05:47Z,42.805,6.029,13.2999,4.60035,2470.404,2021-9-11T09:07:07Z
2021-09-11T07:08:50Z,42.805,6.029,13.2993,4.60032,2470.413,2021-9-11T09:10:10Z
2021-09-11T07:11:53Z,42.805,6.029,13.3004,4.60038,2470.404,2021-9-11T09:13:13Z
2021-09-11T07:14:56Z,42.805,6.029,13.3009,4.60035,2470.404,2021-9-11T09:16:17Z
2021-09-11T07:17:59Z,42.805,6.029,13.2998,4.60038,2470.427,2021-9-11T09:19:20Z
2021-09-11T07:21:02Z,42.805,6.029,13.2997,4.60050,2470.45,2021-9-11T09:22:23Z
2021-09-11T07:24:05Z,42.805,6.029,13.3000,4.60042,2470.38,2021-9-11T09:25:26Z
2021-09-11T07:27:08Z,42.805,6.029,13.2995,4.60029,2470.413,2021-9-11T09:28:29Z
2021-09-11T07:30:12Z,42.805,6.029,13.3001,4.60049,2470.39,2021-9-11T09:31:32Z
2021-09-11T07:33:15Z,42.805,6.029,13.3003,4.60033,2470.474,2021-9-11T09:34:35Z
2021-09-11T07:36:18Z,42.805,6.029,13.3006,4.60030,2470.45,2021-9-11T09:37:38Z
2021-09-11T07:39:21Z,42.805,6.029,13.3008,4.60037,2470.437,2021-9-11T09:40:42Z
2021-09-11T07:42:24Z,42.805,6.029,13.3008,4.60057,2470.427,2021-9-11T09:43:45Z
2021-09-11T07:45:27Z,42.805,6.029,13.3011,4.60038,2470.437,2021-9-11T09:46:48Z
2021-09-11T07:48:30Z,42.805,6.029,13.2996,4.60055,2470.45,2021-9-11T09:49:51Z
2021-09-11T07:51:33Z,42.805,6.029,13.2999,4.60032,2470.45,2021-9-11T09:52:54Z
2021-09-11T07:54:37Z,42.805,6.029,13.2999,4.60029,2470.437,2021-9-11T09:55:57Z
2021-09-11T07:57:40Z,42.805,6.029,13.3004,4.60021,2470.437,2021-9-11T09:59:00Z
2021-09-11T08:00:43Z,42.805,6.029,13.3019,4.60059,2470.46,2021-9-11T10:02:03Z
2021-09-11T08:03:46Z,42.805,6.029,13.3004,4.60046,2470.46,2021-9-11T10:05:07Z
2021-09-11T08:06:49Z,42.805,6.029,13.2996,4.60031,2470.399,2021-9-11T10:08:10Z
2021-09-11T08:09:52Z,42.805,6.029,13.3001,4.60028,2470.437,2021-9-11T10:11:13Z
2021-09-11T08:12:55Z,42.805,6.029,13.3000,4.60032,2470.46,2021-9-11T10:14:16Z
2021-09-11T08:15:58Z,42.805,6.029,13.3006,4.60038,2470.437,2021-9-11T10:17:19Z
2021-09-11T08:19:01Z,42.805,6.029,13.2997,4.60039,2470.474,2021-9-11T10:20:22Z
2021-09-11T08:22:05Z,42.805,6.029,13.2998,4.60034,2470.483,2021-9-11T10:23:25Z
2021-09-11T08:25:08Z,42.805,6.029,13.2998,4.60036,2470.483,2021-9-11T10:26:28Z
2021-09-11T08:28:11Z,42.805,6.029,13.3007,4.60074,2470.437,2021-9-11T10:29:32Z
2021-09-11T08:31:14Z,42.805,6.029,13.3004,4.60074,2470.497,2021-9-11T10:32:35Z
2021-09-11T08:34:17Z,42.805,6.029,13.3006,4.60059,2470.474,2021-9-11T10:35:38Z
2021-09-11T08:37:20Z,42.805,6.029,13.3006,4.60042,2470.483,2021-9-11T10:38:41Z
2021-09-11T08:40:23Z,42.805,6.029,13.3000,4.60038,2470.45,2021-9-11T10:41:44Z
2021-09-11T08:43:27Z,42.805,6.029,13.2998,4.60028,2470.483,2021-9-11T10:44:47Z
2021-09-11T08:46:30Z,42.805,6.029,13.2997,4.60036,2470.46,2021-9-11T10:47:50Z
2021-09-11T08:49:33Z,42.805,6.029,13.3000,4.60031,2470.483,2021-9-11T10:50:53Z
2021-09-11T08:52:36Z,42.805,6.029,13.3009,4.60033,2470.52,2021-9-11T10:53:57Z
2021-09-11T08:55:39Z,42.805,6.029,13.3004,4.60058,2470.46,2021-9-11T10:57:00Z
2021-09-11T08:58:42Z,42.805,6.029,13.2997,4.60044,2470.483,2021-9-11T11:00:03Z
2021-09-11T09:01:45Z,42.805,6.029,13.3005,4.60045,2470.483,2021-9-11T11:03:06Z
2021-09-11T09:04:48Z,42.805,6.029,13.3008,4.60074,2470.53,2021-9-11T11:06:09Z
2021-09-11T09:07:52Z,42.805,6.029,13.3006,4.60052,2470.507,2021-9-11T11:09:12Z
2021-09-11T09:10:55Z,42.805,6.029,13.3017,4.60078,2470.52,2021-9-11T11:12:15Z
2021-09-11T09:13:58Z,42.805,6.029,13.3005,4.60072,2470.497,2021-9-11T11:15:18Z
2021-09-11T09:17:01Z,42.805,6.029,13.3008,4.60062,2470.497,2021-9-11T11:18:22Z
2021-09-11T09:20:04Z,42.805,6.029,13.3014,4.60047,2470.497,2021-9-11T11:21:25Z
2021-09-11T09:23:07Z,42.805,6.029,13.3014,4.60074,2470.483,2021-9-11T11:24:28Z
2021-09-11T09:26:10Z,42.805,6.029,13.3009,4.60078,2470.52,2021-9-11T11:27:31Z
2021-09-11T09:29:13Z,42.805,6.029,13.3014,4.60068,2470.53,2021-9-11T11:30:34Z
2021-09-11T09:32:17Z,42.805,6.029,13.3000,4.60067,2470.497,2021-9-11T11:33:37Z
2021-09-11T09:35:20Z,42.805,6.029,13.3004,4.60047,2470.507,2021-9-11T11:36:40Z
2021-09-11T09:38:23Z,42.805,6.029,13.3004,4.60043,2470.544,2021-9-11T11:39:43Z
2021-09-11T09:41:26Z,42.805,6.029,13.3009,4.60043,2470.53,2021-9-11T11:42:47Z
2021-09-11T09:44:29Z,42.805,6.029,13.3009,4.60064,2470.52,2021-9-11T11:45:50Z
2021-09-11T09:47:32Z,42.805,6.029,13.3012,4.60059,2470.52,2021-9-11T11:48:53Z
2021-09-11T09:50:35Z,42.805,6.029,13.3008,4.60056,2470.497,2021-9-11T11:51:56Z
2021-09-11T09:53:38Z,42.805,6.029,13.3018,4.60042,2470.52,2021-9-11T11:54:59Z
2021-09-11T09:56:42Z,42.805,6.029,13.2999,4.60036,2470.507,2021-9-11T11:58:02Z
2021-09-11T09:59:45Z,42.805,6.029,13.3038,4.60059,2470.507,2021-9-11T12:01:05Z
2021-09-11T10:02:48Z,42.805,6.029,13.3001,4.60038,2470.52,2021-9-11T12:04:08Z
2021-09-11T10:05:51Z,42.805,6.029,13.3006,4.60067,2470.507,2021-9-11T12:07:12Z
2021-09-11T10:08:54Z,42.805,6.029,13.3004,4.60051,2470.507,2021-9-11T12:10:15Z
2021-09-11T10:11:57Z,42.805,6.029,13.2999,4.60040,2470.497,2021-9-11T12:13:18Z
2021-09-11T10:15:00Z,42.805,6.029,13.3013,4.60044,2470.507,2021-9-11T12:16:21Z
2021-09-11T10:18:03Z,42.805,6.029,13.3001,4.60054,2470.483,2021-9-11T12:19:24Z
2021-09-11T10:21:07Z,42.805,6.029,13.2996,4.60049,2470.507,2021-9-11T12:22:27Z
2021-09-11T10:24:10Z,42.805,6.029,13.3012,4.60072,2470.46,2021-9-11T12:25:30Z
2021-09-11T10:27:13Z,42.805,6.029,13.3006,4.60053,2470.483,2021-9-11T12:28:34Z
2021-09-11T10:30:16Z,42.805,6.029,13.3010,4.60052,2470.52,2021-9-11T12:31:37Z
2021-09-11T10:33:19Z,42.805,6.029,13.3001,4.60050,2470.474,2021-9-11T12:34:40Z
2021-09-11T10:36:22Z,42.805,6.029,13.3018,4.60053,2470.507,2021-9-11T12:37:43Z
2021-09-11T10:39:25Z,42.805,6.029,13.3003,4.60054,2470.52,2021-9-11T12:40:46Z
2021-09-11T10:42:28Z,42.805,6.029,13.3010,4.60053,2470.474,2021-9-11T12:43:49Z
2021-09-11T10:45:32Z,42.805,6.029,13.3012,4.60052,2470.474,2021-9-11T12:46:52Z
2021-09-11T10:48:35Z,42.805,6.029,13.3004,4.60036,2470.507,2021-9-11T12:49:55Z
2021-09-11T10:51:38Z,42.805,6.029,13.3013,4.60053,2470.52,2021-9-11T12:52:59Z
2021-09-11T10:54:41Z,42.805,6.029,13.3005,4.60054,2470.483,2021-9-11T12:56:02Z
2021-09-11T10:57:44Z,42.805,6.029,13.3004,4.60039,2470.46,2021-9-11T12:59:05Z
2021-09-11T11:00:47Z,42.805,6.029,13.3014,4.60052,2470.46,2021-9-11T13:02:08Z
2021-09-11T11:03:50Z,42.805,6.029,13.3014,4.60071,2470.46,2021-9-11T13:05:11Z
2021-09-11T11:06:53Z,42.805,6.029,13.3009,4.60052,2470.483,2021-9-11T13:08:14Z
2021-09-11T11:09:57Z,42.805,6.029,13.3010,4.60057,2470.483,2021-9-11T13:11:17Z
2021-09-11T11:13:00Z,42.805,6.029,13.3004,4.60044,2470.474,2021-9-11T13:14:20Z
2021-09-11T11:16:03Z,42.805,6.029,13.3009,4.60046,2470.46,2021-9-11T13:17:24Z
2021-09-11T11:19:06Z,42.805,6.029,13.3009,4.60056,2470.497,2021-9-11T13:20:27Z
2021-09-11T11:22:09Z,42.805,6.029,13.2998,4.60049,2470.483,2021-9-11T13:23:30Z
2021-09-11T11:25:12Z,42.805,6.029,13.3015,4.60053,2470.46,2021-9-11T13:26:33Z
2021-09-11T11:28:15Z,42.805,6.029,13.3008,4.60057,2470.46,2021-9-11T13:29:36Z
2021-09-11T11:31:18Z,42.805,6.029,13.2998,4.60051,2470.483,2021-9-11T13:32:39Z
2021-09-11T11:34:22Z,42.805,6.029,13.3015,4.60062,2470.474,2021-9-11T13:35:42Z
2021-09-11T11:37:25Z,42.805,6.029,13.2997,4.60038,2470.474,2021-9-11T13:38:45Z
2021-09-11T11:40:28Z,42.805,6.029,13.2999,4.60047,2470.497,2021-9-11T13:41:49Z
2021-09-11T11:43:31Z,42.805,6.029,13.3006,4.60040,2470.46,2021-9-11T13:44:52Z
2021-09-11T11:46:34Z,42.805,6.029,13.3009,4.60054,2470.437,2021-9-11T13:47:55Z
2021-09-11T11:49:37Z,42.805,6.029,13.3015,4.60069,2470.437,2021-9-11T13:50:58Z
2021-09-11T11:52:40Z,42.805,6.029,13.3004,4.60033,2470.45,2021-9-11T13:54:01Z
2021-09-11T11:55:43Z,42.805,6.029,13.3004,4.60033,2470.45,2021-9-11T13:57:04Z
2021-09-11T11:58:47Z,42.805,6.029,13.2999,4.60032,2470.45,2021-9-11T14:00:07Z
2021-09-11T12:01:50Z,42.805,6.029,13.3000,4.60033,2470.46,2021-9-11T14:03:10Z
2021-09-11T12:04:53Z,42.805,6.029,13.3006,4.60044,2470.437,2021-9-11T14:06:14Z
2021-09-11T12:07:56Z,42.805,6.029,13.2997,4.60049,2470.437,2021-9-11T14:09:17Z
2021-09-11T12:10:59Z,42.805,6.029,13.3007,4.60059,2470.45,2021-9-11T14:12:20Z
2021-09-11T12:14:02Z,42.805,6.029,13.3009,4.60077,2470.45,2021-9-11T14:15:23Z
2021-09-11T12:17:05Z,42.805,6.029,13.3002,4.60033,2470.437,2021-9-11T14:18:26Z
2021-09-11T12:20:08Z,42.805,6.029,13.3006,4.60048,2470.437,2021-9-11T14:21:29Z
2021-09-11T12:23:12Z,42.805,6.029,13.3000,4.60034,2470.413,2021-9-11T14:24:32Z
2021-09-11T12:26:15Z,42.805,6.029,13.3000,4.60051,2470.427,2021-9-11T14:27:35Z
2021-09-11T12:29:18Z,42.805,6.029,13.3007,4.60053,2470.46,2021-9-11T14:30:39Z
2021-09-11T12:32:21Z,42.805,6.029,13.3006,4.60055,2470.427,2021-9-11T14:33:42Z
2021-09-11T12:35:24Z,42.805,6.029,13.3002,4.60036,2470.413,2021-9-11T14:36:45Z
2021-09-11T12:38:27Z,42.805,6.029,13.2997,4.60032,2470.45,2021-9-11T14:39:48Z
2021-09-11T12:41:30Z,42.805,6.029,13.3000,4.60081,2470.427,2021-9-11T14:42:51Z
2021-09-11T12:44:34Z,42.805,6.029,13.3012,4.60063,2470.413,2021-9-11T14:45:54Z
2021-09-11T12:47:37Z,42.805,6.029,13.3010,4.60064,2470.404,2021-9-11T14:48:57Z
2021-09-11T12:50:40Z,42.805,6.029,13.3001,4.60060,2470.413,2021-9-11T14:52:00Z
2021-09-11T12:53:43Z,42.805,6.029,13.3002,4.60054,2470.427,2021-9-11T14:55:04Z
2021-09-11T12:56:46Z,42.805,6.029,13.3006,4.60060,2470.437,2021-9-11T14:58:07Z
2021-09-11T12:59:49Z,42.805,6.029,13.3000,4.60046,2470.427,2021-9-11T15:01:10Z
2021-09-11T13:02:52Z,42.805,6.029,13.2998,4.60057,2470.404,2021-9-11T15:04:13Z
2021-09-11T13:05:55Z,42.805,6.029,13.3007,4.60062,2470.413,2021-9-11T15:07:16Z
2021-09-11T13:08:58Z,42.805,6.029,13.3015,4.60078,2470.39,2021-9-11T15:10:19Z
2021-09-11T13:12:02Z,42.805,6.029,13.3003,4.60079,2470.413,2021-9-11T15:13:22Z
2021-09-11T13:15:05Z,42.805,6.029,13.3011,4.60062,2470.437,2021-9-11T15:16:25Z
2021-09-11T13:18:08Z,42.805,6.029,13.3011,4.60062,2470.39,2021-9-11T15:19:29Z
2021-09-11T13:21:11Z,42.805,6.029,13.3002,4.60049,2470.39,2021-9-11T15:22:32Z
2021-09-11T13:24:14Z,42.805,6.029,13.3006,4.60053,2470.427,2021-9-11T15:25:35Z
2021-09-11T13:27:17Z,42.805,6.029,13.3007,4.60035,2470.427,2021-9-11T15:28:38Z
2021-09-11T13:30:20Z,42.805,6.029,13.3021,4.60056,2470.39,2021-9-11T15:31:41Z
2021-09-11T13:33:24Z,42.805,6.029,13.3008,4.60051,2470.427,2021-9-11T15:34:44Z
2021-09-11T13:36:27Z,42.805,6.029,13.3017,4.60067,2470.366,2021-9-11T15:37:47Z
2021-09-11T13:39:30Z,42.805,6.029,13.3010,4.60062,2470.427,2021-9-11T15:40:50Z
2021-09-11T13:42:33Z,42.805,6.029,13.3012,4.60073,2470.404,2021-9-11T15:43:54Z
2021-09-11T13:45:36Z,42.805,6.029,13.3008,4.60095,2470.366,2021-9-11T15:46:57Z
2021-09-11T13:48:39Z,42.805,6.029,13.3010,4.60080,2470.413,2021-9-11T15:50:00Z
2021-09-11T13:51:42Z,42.805,6.029,13.3016,4.60074,2470.353,2021-9-11T15:53:03Z
2021-09-11T13:54:45Z,42.805,6.029,13.3014,4.60077,2470.39,2021-9-11T15:56:06Z
2021-09-11T13:57:49Z,42.805,6.029,13.3007,4.60074,2470.404,2021-9-11T15:59:09Z
2021-09-11T14:00:52Z,42.805,6.029,13.3021,4.60078,2470.38,2021-9-11T16:02:12Z
2021-09-11T14:03:55Z,42.805,6.029,13.3029,4.60095,2470.404,2021-9-11T16:05:15Z
2021-09-11T14:06:58Z,42.805,6.029,13.3024,4.60087,2470.38,2021-9-11T16:08:19Z
2021-09-11T14:10:01Z,42.805,6.029,13.3029,4.60101,2470.404,2021-9-11T16:11:22Z
2021-09-11T14:13:04Z,42.805,6.029,13.3013,4.60086,2470.38,2021-9-11T16:14:25Z
2021-09-11T14:16:07Z,42.805,6.029,13.3030,4.60103,2470.38,2021-9-11T16:17:28Z
2021-09-11T14:19:10Z,42.805,6.029,13.3011,4.60099,2470.357,2021-9-11T16:20:31Z
2021-09-11T14:22:14Z,42.805,6.029,13.3036,4.60074,2470.404,2021-9-11T16:23:34Z
2021-09-11T14:25:17Z,42.805,6.029,13.2998,4.60077,2470.38,2021-9-11T16:26:37Z
2021-09-11T14:28:20Z,42.805,6.029,13.3012,4.60079,2470.343,2021-9-11T16:29:41Z
2021-09-11T14:31:23Z,42.805,6.029,13.3013,4.60093,2470.38,2021-9-11T16:32:44Z
2021-09-11T14:34:26Z,42.805,6.029,13.3007,4.60069,2470.343,2021-9-11T16:35:47Z
2021-09-11T14:37:29Z,42.805,6.029,13.2999,4.60067,2470.404,2021-9-11T16:38:50Z
2021-09-11T14:40:32Z,42.805,6.029,13.3018,4.60076,2470.334,2021-9-11T16:41:53Z
2021-09-11T14:43:35Z,42.805,6.029,13.3002,4.60072,2470.357,2021-9-11T16:44:56Z
2021-09-11T14:46:39Z,42.805,6.029,13.3007,4.60061,2470.357,2021-9-11T16:47:59Z
2021-09-11T14:49:42Z,42.805,6.029,13.3015,4.60078,2470.404,2021-9-11T16:51:02Z
2021-09-11T14:52:45Z,42.805,6.029,13.3003,4.60074,2470.32,2021-9-11T16:54:06Z
2021-09-11T14:55:48Z,42.805,6.029,13.3013,4.60092,2470.32,2021-9-11T16:57:09Z
2021-09-11T14:58:51Z,42.805,6.029,13.3006,4.60095,2470.357,2021-9-11T17:00:12Z
2021-09-11T15:01:54Z,42.805,6.029,13.3011,4.60103,2470.334,2021-9-11T17:03:15Z
2021-09-11T15:04:57Z,42.805,6.029,13.3009,4.60104,2470.357,2021-9-11T17:06:18Z
2021-09-11T15:08:00Z,42.805,6.029,13.3004,4.60086,2470.343,2021-9-11T17:09:21Z
2021-09-11T15:11:04Z,42.805,6.029,13.3008,4.60096,2470.343,2021-9-11T17:12:24Z
2021-09-11T15:14:07Z,42.805,6.029,13.3016,4.60105,2470.343,2021-9-11T17:15:27Z